Location: Unspecified
(47.1121°N, 116.3927°W)
Time: 20:10:56
(UTC-07:00)

ISS - Visible Passes

Search period start: 27 May 2018 00:00
Search period end: 06 June 2018 00:00
Orbit: 402 x 407 km, 51.6° (Epoch: 28 May)

Date Brightness Start Highest point End Pass type
(mag) Time Alt. Az. Time Alt. Az. Time Alt. Az.
27 May -2.6 00:40:02 10° WNW 00:42:09 37° WNW 00:42:09 37° WNW visible
27 May -2.2 22:11:11 10° WNW 22:14:14 35° N 22:17:18 10° ENE visible
27 May -3.4 23:47:51 10° WNW 23:51:05 60° NNE 23:51:28 54° NE visible
28 May -2.3 21:18:48 10° WNW 21:21:53 37° N 21:24:58 10° ENE visible
28 May -2.8 22:55:37 10° WNW 22:58:48 45° NNE 23:00:50 19° E visible
29 May -1.9 00:32:09 10° WNW 00:33:27 21° W 00:33:27 21° W visible
29 May -2.4 22:03:21 10° WNW 22:06:27 38° N 22:09:33 10° ENE visible
29 May -3.8 23:39:52 10° WNW 23:42:51 70° W 23:42:51 70° W visible
30 May -2.3 21:11:01 10° WNW 21:14:04 35° N 21:17:08 10° ENE visible
30 May -3.6 22:47:37 10° WNW 22:50:53 68° NNE 22:52:17 31° E visible
31 May -1.2 00:24:26 10° W 00:24:55 13° W 00:24:55 13° W visible
31 May -3.0 21:55:22 10° WNW 21:58:34 49° NNE 22:01:43 10° E visible
31 May -2.8 23:31:56 10° WNW 23:34:21 35° WSW 23:34:21 35° WSW visible
01 Jun -3.9 22:39:35 10° WNW 22:42:50 68° SSW 22:43:50 40° SE visible
02 Jun -3.8 21:47:16 10° WNW 21:50:33 78° NNE 21:53:19 14° ESE visible
02 Jun -1.9 23:24:15 10° W 23:25:57 18° WSW 23:25:57 18° WSW visible
03 Jun -2.9 22:31:37 10° WNW 22:34:36 33° SW 22:35:28 28° S visible
04 Jun -3.6 21:39:10 10° WNW 21:42:24 56° SSW 21:45:01 14° SE visible
05 Jun -1.8 22:24:01 10° W 22:26:12 17° SW 22:27:14 15° SSW visible
